Davenport, IA

2:17 PM CDT on May 22, 2018 (GMT -0500)
Davenport Municipal

Weather History for KDVN - December, 2013

Change the Weather History Date:

Friday, December 27, 2013

  Actual Average Record
Temperature  
Mean Temperature 27 °F 22 °F  
Max Temperature 41 °F 30 °F 62 °F (1982)
Min Temperature 13 °F 14 °F -14 °F (2017)
Degree Days  
Heating Degree Days 38 43  
Month to date heating degree days 1216 1060  
Since 1 July heating degree days 2629 2408  
Cooling Degree Days 0 0  
Month to date cooling degree days 0 0  
Year to date cooling degree days 938 786  
Moisture  
Dew Point 22 °F    
Average Humidity 76    
Maximum Humidity 92    
Minimum Humidity 59    
Precipitation  
Precipitation 0.00 in 0.03 in 0.85 in (1959)
Month to date precipitation 1.06 1.61  
Year to date precipitation 34.83 35.91  
Snow  
Snow 0.00 in - - ()
Month to date snowfall 12.4  
Since 1 July snowfall 15.7  
Snow Depth 4.00 in    
Sea Level Pressure  
Sea Level Pressure 30.22 in    
Wind  
Wind Speed 8 mph (SW)    
Max Wind Speed 18 mph    
Max Gust Speed 24 mph    
Visibility 7 miles    
Events Fog    
T = Trace of Precipitation, MM = Missing Value Source: NWS Daily Summary

Daily Weather History Graph

Daily Weather History Graph

Search for Another Location

Airport or City:

Astronomy

Dec. 27, 2013 Rise Set
Actual Time 7:28 AM CST 4:39 PM CST
Civil Twilight 6:56 AM CST 5:10 PM CST
Nautical Twilight 6:21 AM CST 5:45 PM CST
Astronomical Twilight 5:48 AM CST 6:19 PM CST
Moon 1:57 AM CST (12/27) 12:52 PM CST (12/27)
Length of Visible Light 10h 13m
Length of Day
9h 10m
Waning Crescent, 28% of the Moon is Illuminated
Dec 27
Waning Crescent
Jan 1
New
Jan 7
First Quarter
Jan 15
Full
Jan 23
Last Quarter

Hourly Weather History & Observations

Time (CST) Temp. Windchill Dew Point Humidity Pressure Visibility Wind Dir Wind Speed Gust Speed Precip Events Conditions
12:52 AM 28.0 °F - 23.0 °F 81% 30.24 in 10.0 mi Calm Calm - N/A   Overcast
1:52 AM 27.0 °F - 21.0 °F 78% 30.25 in 10.0 mi Calm Calm - N/A   Partly Cloudy
2:52 AM 25.0 °F 19.3 °F 21.0 °F 85% 30.26 in 8.0 mi SSW 4.6 mph - N/A   Clear
3:52 AM 23.0 °F 18.4 °F 19.9 °F 88% 30.25 in 6.0 mi West 3.5 mph - N/A   Clear
4:52 AM 21.0 °F 14.6 °F 18.0 °F 88% 30.25 in 5.0 mi WSW 4.6 mph - N/A   Clear
5:52 AM 21.0 °F 13.4 °F 19.0 °F 92% 30.27 in 5.0 mi WSW 5.8 mph - N/A   Clear
6:52 AM 19.0 °F 12.3 °F 17.1 °F 92% 30.29 in 3.0 mi West 4.6 mph - N/A   Clear
7:20 AM 17.6 °F 12.3 °F 15.8 °F 93% 30.26 in 2.0 mi West 3.5 mph - N/A   Clear
7:28 AM 14.0 °F 8.2 °F 12.2 °F 93% 30.26 in 0.8 mi WSW 3.5 mph - N/A   Clear
7:36 AM 15.8 °F 6.1 °F 12.2 °F 86% 30.26 in 0.2 mi WSW 6.9 mph - N/A Fog Light Freezing Fog
7:48 AM 17.6 °F 10.7 °F 14.0 °F 86% 30.25 in 1.0 mi WSW 4.6 mph - N/A   Clear
7:52 AM 18.0 °F 11.1 °F 15.1 °F 88% 30.30 in 1.8 mi WSW 4.6 mph - N/A   Clear
7:59 AM 19.4 °F 12.8 °F 17.6 °F 93% 30.26 in 2.0 mi WSW 4.6 mph - N/A   Clear
8:37 AM 19.4 °F 11.5 °F 17.6 °F 93% 30.26 in 3.0 mi SW 5.8 mph - N/A   Clear
8:52 AM 19.9 °F 12.1 °F 17.1 °F 89% 30.30 in 4.0 mi WSW 5.8 mph - N/A   Clear
9:52 AM 23.0 °F 15.8 °F 19.9 °F 88% 30.31 in 6.0 mi SW 5.8 mph - N/A   Clear
10:52 AM 28.9 °F - 24.1 °F 82% 30.28 in 6.0 mi Calm Calm - N/A   Haze
11:52 AM 33.1 °F 28.7 °F 25.0 °F 72% 30.25 in 8.0 mi South 4.6 mph - N/A   Clear
12:52 PM 35.1 °F 28.6 °F 25.0 °F 67% 30.23 in 10.0 mi SSW 8.1 mph - N/A   Clear
1:52 PM 37.9 °F 30.0 °F 25.0 °F 60% 30.19 in 10.0 mi SSW 12.7 mph - N/A   Clear
2:52 PM 37.9 °F 30.0 °F 27.0 °F 65% 30.17 in 10.0 mi South 12.7 mph - N/A   Clear
3:52 PM 37.0 °F 28.9 °F 27.0 °F 67% 30.16 in 10.0 mi South 12.7 mph - N/A   Clear
4:52 PM 37.0 °F 28.9 °F 27.0 °F 67% 30.14 in 10.0 mi South 12.7 mph - N/A   Clear
5:52 PM 37.9 °F 29.6 °F 28.0 °F 68% 30.13 in 10.0 mi South 13.8 mph - N/A   Clear
6:52 PM 39.9 °F 31.8 °F 28.0 °F 63% 30.13 in 10.0 mi SSW 15.0 mph - N/A   Clear
7:52 PM 39.0 °F 30.6 °F 28.0 °F 65% 30.14 in 10.0 mi SW 15.0 mph - N/A   Clear
8:52 PM 39.0 °F 31.0 °F 28.0 °F 65% 30.14 in 10.0 mi SW 13.8 mph - N/A   Clear
9:52 PM 39.0 °F 30.3 °F 28.9 °F 67% 30.14 in 10.0 mi SW 16.1 mph - N/A   Clear
10:52 PM 39.0 °F 30.6 °F 30.0 °F 70% 30.13 in 10.0 mi SW 15.0 mph - N/A   Clear
11:52 PM 37.0 °F 29.3 °F 30.0 °F 76% 30.12 in 10.0 mi WSW 11.5 mph - N/A   Clear